Regional Weather Roundup
Issued by NWS

Home | Current Version | Previous Version | Text Only | Print | Product List | Glossary Off
Versions: 1 2 3 4 5 6 7 8 9 10 11 12 13 14 15 16 17 18 19 20 21 22 23 24 25 26 27 28

000
ASUS45 KPSR 200510
RWRAZ

ARIZONA HOURLY REGIONAL WEATHER ROUNDUP
NATIONAL WEATHER SERVICE PHOENIX AZ
1000 PM MST SUN NOV 19 2017

NOTE: FAIR INDICATES FEW OR NO CLOUDS BELOW 12,000 FEET WITH NO
SIGNIFICANT WEATHER AND/OR OBSTRUCTIONS TO VISIBILITY.

AZZ001>003-036-200600-
NORTHWEST ARIZONA

CITY           SKY/WX    TMP DP  RH WIND       PRES   REMARKS
BULLHEAD CITY  PTCLDY    61   9  12 N5        30.05R
KINGMAN        PTCLDY    40   6  24 E8        30.12S WCI  34
$$

AZZ004>008-015-016-018-200600-
NORTH CENTRAL ARIZONA

CITY           SKY/WX    TMP DP  RH WIND       PRES   REMARKS
GRAND CANYON   MOCLDY    21  -1  38 CALM      30.22S
WILLIAMS       PTCLDY    30   9  40 S9        30.22S WCI  22
PRESCOTT       PTCLDY    40  13  33 S13       30.16R WCI  32
FLAGSTAFF      PTCLDY    23   2  40 CALM      30.23R
PAYSON           N/A     43  12  28 CALM      30.19R
PAGE           PTCLDY    39  13  34 W3        30.19S
$$

AZZ009>014-017-200600-
NORTHEAST ARIZONA

CITY           SKY/WX    TMP DP  RH WIND       PRES   REMARKS
WINSLOW        PTCLDY    26  -1  31 CALM      30.21R
SAINT JOHNS    PTCLDY    35   8  32 CALM      30.20R
WINDOW ROCK    CLEAR     20   3  48 CALM      30.23R
SHOW LOW       PTCLDY    28   5  37 CALM      30.24R
$$

AZZ540-542>544-546-548-200600-
GREATER PHOENIX AREA

CITY           SKY/WX    TMP DP  RH WIND       PRES   REMARKS
PHOENIX        CLEAR     63  28  26 SW3       29.98R
BUCKEYE        CLEAR     59  12  15 N10       30.00R
LUKE AFB       CLEAR     60  21  22 NE9       29.98R
DEER VALLEY    CLEAR     62  15  16 NE10      29.99S
SCOTTSDALE     CLEAR     61  24  24 CALM      30.01R
MESA-GATEWAY   CLEAR     55  16  21 E7        30.01R
$$

AZZ539-553-200600-
SOUTHWEST MARICOPA COUNTY AND PINAL COUNTY

CITY           SKY/WX    TMP DP  RH WIND       PRES   REMARKS
CASA GRANDE    NOT AVBL
$$

AZZ503-504-507>509-200600-
SOUTHEAST ARIZONA

CITY           SKY/WX    TMP DP  RH WIND       PRES   REMARKS
TUCSON         CLEAR     64  23  21 E9        30.05S
DAVIS-MONTHAN  CLEAR     55  21  26 SE5       30.04R
NOGALES        CLEAR     53  24  32 NE7       30.08R
SIERRA VISTA   CLEAR     48  22  36 W3        30.14S
DOUGLAS        CLEAR     45  21  38 N9        30.13R
SAFFORD        CLEAR     47  12  24 SE6       30.10R
$$

AZZ532-200600-
SOUTHWEST ARIZONA

CITY           SKY/WX    TMP DP  RH WIND       PRES   REMARKS
YUMA           CLEAR     62  14  15 NW5       29.99S
$$

CAZ041-043-047-048-061-525>527-560>570-200600-
SOUTHERN CALIFORNIA

CITY           SKY/WX    TMP DP  RH WIND       PRES   REMARKS
DOWNTOWN L.A.  PTCLDY    58  50  75 CALM      30.00R
L.A. AIRPORT   PTCLDY    63  55  75 CALM      30.00S
SAN DIEGO      PTCLDY    62  51  67 N3        30.03R
BURBANK        PTCLDY    59  28  30 NW3       30.01R
ONTARIO        PTCLDY    59  36  42 CALM      30.03R
RIVERSIDE      PTCLDY    58  38  47 CALM      30.03R
PALM SPRINGS   PTCLDY    62  16  16 NW8       30.03R
EL CENTRO NAS  CLEAR     56  15  20 SW6       30.01S
IMPERIAL       PTCLDY    55  29  36 CALM      29.99S
BLYTHE         PTCLDY    57   8  14 NW3       30.02S
NEEDLES        PTCLDY    55   7  14 W9        30.04F
$$

NVZ020-UTZ003-200600-
SOUTHERN NEVADA-UTAH

CITY           SKY/WX    TMP DP  RH WIND       PRES   REMARKS
LAS VEGAS      CLOUDY    50  10  20 S3        30.09R
SALT LAKE CITY CLOUDY    34  31  88 SW3       30.10S
$$

NMZ009-TXZ055-200600-
NEW MEXICO-WEST TEXAS

CITY           SKY/WX    TMP DP  RH WIND       PRES   REMARKS
ALBUQUERQUE    CLOUDY    39   3  22 CALM      30.19R
EL PASO        CLEAR     50  17  27 N8        30.15S
$$


........................KEY........................
SKY/WX - SKY CONDITION/WEATHER
TMP    - TEMPERATURE IN FAHRENHEIT
DP     - DEW POINT IN FAHRENHEIT
RH     - RELATIVE HUMIDITY IN PERCENT
WIND   - DIRECTION AND SPEED IN MILES PER HOUR (MPH)
VRB    - VARIABLE WIND DIRECTION
PRES   - MEAN SEA LEVEL PRESSURE IN INCHES OF MERCURY
         F - FALLING PRESSURE   R - RISING PRESSURE
         S - STEADY PRESSURE
VSB    - VISIBILITY IN MILES
HX     - HEAT INDEX IN FAHRENHEIT
WCI    - WIND CHILL INDEX IN FAHRENHEIT
TC     - TEMPERATURE IN CELSIUS WHICH IS ALSO KNOWN AS
         TEMPERATURE IN CENTIGRADE
AFB    - AIR FORCE BASE
         LUKE AFB IS LUKE AIR FORCE BASE
         DAVIS-MONTHAN IS DAVIS-MONTHAN AIR FORCE BASE
NAS    - NAVAL AIR STATION
         EL CENTRO NAS IS EL CENTRO NAVAL AIR STATION
N/A    - NOT AVAILABLE





USA.gov is the U.S. government's official web portal to all federal, state and local government web resources and services.